Overview Statistics Trail Chart Weather Telemetry Raw packets
 

This is the latest recevied weather packets stored in our database for station/object G4WLC-1. If no packets are shown the sender has not sent any weather packets the latest 10 day(s).

<< 73 74 75 76 77 78 79 >>
Time Temp. Humidity Pressure Rain* Wind** Luminosity Snow
1788140234 12.22° C 94% 1005 hPa 2.54 mm - - -
1788139934 12.22° C 94% 1004.9 hPa 2.79 mm - - -
1788139634 12.22° C 94% 1004.7 hPa 3.3 mm - - -
1788139336 12.22° C 94% 1004.8 hPa 3.3 mm - - -
1788139034 12.22° C 94% 1004.8 hPa 3.3 mm - - -
1788138734 12.22° C 94% 1004.8 hPa 3.56 mm - - -
1788138434 12.22° C 94% 1004.6 hPa 3.56 mm - - -
1788138134 12.22° C 94% 1004.8 hPa 3.81 mm - - -
1788137834 12.22° C 94% 1004.6 hPa 3.56 mm - - -
1788137534 12.22° C 94% 1004.6 hPa 3.3 mm - - -
1788137234 11.67° C 94% 1004.6 hPa 2.79 mm - - -
1788136934 11.67° C 94% 1004.6 hPa 2.03 mm - - -
1788136634 11.67° C 94% 1004.5 hPa 1.27 mm - - -
1788136334 12.22° C 94% 1004.6 hPa 1.02 mm - - -
1788136034 12.22° C 93% 1004.6 hPa 0.51 mm - - -
1788135734 12.22° C 94% 1004.6 hPa 0.51 mm - - -
1788135434 12.22° C 94% 1004.4 hPa 0.51 mm - - -
1788135134 12.22° C 94% 1004.2 hPa 0.25 mm - - -
1788134834 12.78° C 94% 1003.9 hPa 0.25 mm - - -
1788134534 12.78° C 94% 1003.9 hPa 0 mm - - -
1788134234 12.78° C 94% 1003.9 hPa 0 mm - - -
1788133934 12.78° C 94% 1004 hPa 0 mm - - -
1788133634 12.78° C 94% 1003.9 hPa 0 mm - - -
1788133334 13.33° C 94% 1004.1 hPa 0 mm - - -
1788133034 13.89° C 94% 1004.3 hPa 0 mm - - -

* Rain latest hour (hover to see other rain measurements)
** Current wind speed in m/s (hover to see current wind gust speed)